Tracking 26006 objects as of 17-Aug-2022
HD Live streaming from Space Station
objects crossing your sky now

RESURS O1 DEB

Track RESURS O1 DEB now!
10-day predictions


NORAD ID: 46880
Int'l Code: 1994-074BL
Perigee: 585.1 km
Apogee: 596.3 km
Inclination: 97.9 °
Period: 96.3 minutes
Semi major axis: 6961 km
RCS: Unknown
Launch date: November 4, 1994
Source: Commonwealth of Independent States (former USSR) (CIS)
Launch site: TYURATAM MISSILE AND SPACE COMPLEX (TTMTR)

Note: This is SATELLITE DEBRIS
aabbcc
Your satellite tracking list
Your tracking list is empty




NASA's NSSDC Master Catalog

Two Line Element Set (TLE):
1 46880U 94074BL  22229.11777142  .00030754  00000-0  28328-2 0  9991
2 46880  97.8932 281.1617 0008068 256.6810 103.3510 14.94617895 96666
Source of the keplerian elements: AFSPC